• Join FlightAware (Why Join?)
  • Login
  • US Flag GB Flag 
05:00 EST


 

Airport Tracker/Info


-or-


 

Live Flight TrackerFlight Track Log ✈ UAL4180 ✈ 25-Apr-2013 ✈ KIAH - KMKE

Flight Track Log - Related Links

Times and Time Zones

All times are in EDT time to prevent confusion due to time zone crossing. See the UAL4180 flight status page for this flight to view local times or setup timezone preferences in your user account.

Time Position Orientation Groundspeed Altitude Reporting Facility
EDT Latitude Longitude Course Direction KTS MPH feet Rate Location/Type
12:12 29.9764 -95.2983 30° Northeast 207 238 800  Level Houston Center
12:13 30.0328 -95.2722 22° Northeast 227 261 2,600 1,560 Climbing Houston Center
12:14 30.0831 -95.2611 11° North 223 257 4,000 1,320 Climbing Houston Center
12:14 30.1008 -95.2567 12° North 249 287 4,000 480 Level Houston Center
12:15 30.4069 -95.1632 23° Northeast  Level FlightAware Approximate
12:15 30.1506 -95.2422 14° North 243 280 4,500  Level Houston Center
12:15 30.1722 -95.2336 19° North 250 288 5,100 1,800 Climbing Houston Center
12:16 30.5078 -95.1053 27° Northeast  Level FlightAware Approximate
12:16 30.2186 -95.2156 19° North 257 296 6,400  Level Houston Center
12:17 30.6055 -95.0463 30° Northeast  Level FlightAware Approximate
12:17 30.2931 -95.1881 18° North 276 318 8,600  Level Houston Center
12:18 30.3686 -95.1586 19° North 284 327 10,500 1,200 Climbing Houston Center
12:19 30.4611 -95.1189 20° North 317 365 11,200 840 Climbing Houston Center
12:20 30.5575 -95.0783 20° North 360 414 12,300 1,200 Climbing Houston Center
12:21 30.6519 -95.0317 23° Northeast 366 421 13,700 1,500 Climbing Houston Center
12:22 30.7625 -94.9639 28° Northeast 373 429 15,400 1,320 Climbing Houston Center
12:23 30.8539 -94.9072 28° Northeast 371 427 16,500 1,020 Climbing Houston Center
12:24 30.9464 -94.8503 28° Northeast 372 428 17,600 840 Climbing Houston Center
12:25 31.0453 -94.7900 28° Northeast 381 438 18,300 720 Climbing Houston Center
12:26 31.1347 -94.7342 28° Northeast 367 422 19,200 900 Climbing Fort Worth Center
12:27 31.2317 -94.6706 29° Northeast 381 438 20,200 900 Climbing Fort Worth Center
12:28 31.3242 -94.6047 31° Northeast 387 445 21,100 900 Climbing Fort Worth Center
12:29 31.4350 -94.5283 30° Northeast 404 465 22,100 900 Climbing Fort Worth Center
12:30 31.5336 -94.4617 30° Northeast 409 471 23,000 1,020 Climbing Fort Worth Center
12:31 31.6322 -94.3928 31° Northeast 409 471 24,200 1,020 Climbing Fort Worth Center
12:32 31.7308 -94.3236 31° Northeast 409 471 25,100 1,020 Climbing Fort Worth Center
12:33 31.8294 -94.2567 30° Northeast 409 471 26,300 1,500 Climbing Fort Worth Center
12:34 31.9258 -94.1872 31° Northeast 409 471 28,200 1,800 Climbing Fort Worth Center
12:35 32.0181 -94.1253 30° Northeast 396 456 29,900 1,500 Climbing Fort Worth Center
12:36 32.1042 -94.0633 31° Northeast 375 432 31,300 1,020 Climbing Fort Worth Center
12:37 32.1736 -94.0117 32° Northeast 369 425 32,000 780 Climbing Fort Worth Center
12:38 32.2719 -93.9417 31° Northeast 369 425 32,900 480 Climbing Fort Worth Center
12:39 32.3661 -93.8717 32° Northeast 374 430 33,000  Climbing Fort Worth Center
12:40 32.4706 -93.7986 31° Northeast 399 459 33,000  Level Fort Worth Center
12:41 32.5789 -93.7203 31° Northeast 430 495 33,000 240 Level Fort Worth Center
12:42 32.6933 -93.6392 31° Northeast 456 525 33,500 660 Climbing Fort Worth Center
12:43 32.8036 -93.5603 31° Northeast 462 532 34,400 720 Climbing Fort Worth Center
12:44 32.9119 -93.4839 31° Northeast 457 526 35,000 300 Climbing Fort Worth Center
12:45 33.0219 -93.4022 32° Northeast 457 526 35,000  Level Fort Worth Center
12:47 33.3100 -93.1958 31° Northeast 459 528 35,000  Level Memphis Center
12:48 33.4181 -93.1147 32° Northeast 459 528 35,000  Level Memphis Center
12:49 33.5306 -93.0336 31° Northeast 464 534 35,000  Level Memphis Center
12:50 33.6408 -92.9547 31° Northeast 464 534 35,000  Level Memphis Center
12:51 33.7508 -92.8781 30° Northeast 464 534 35,000  Level Memphis Center
12:52 33.8611 -92.7961 32° Northeast 459 528 35,000  Level Memphis Center
12:53 33.9711 -92.7142 32° Northeast 459 528 35,000  Level Memphis Center
12:54 34.0831 -92.6344 31° Northeast 459 528 35,000  Level Memphis Center
12:55 34.1931 -92.5519 32° Northeast 465 535 35,000  Level Memphis Center
12:56 34.3008 -92.4717 32° Northeast 465 535 35,000  Level Memphis Center
12:57 34.4108 -92.3886 32° Northeast 460 529 35,000  Level Memphis Center
12:58 34.5206 -92.3108 30° Northeast 460 529 35,000  Level Memphis Center
12:59 34.6283 -92.2247 33° Northeast 460 529 35,000  Level Memphis Center
13:00 34.7461 -92.1642 23° Northeast 453 521 35,000  Level Memphis Center
13:01 34.8594 -92.1161 19° North 438 504 35,000  Level Memphis Center
13:02 34.9622 -92.0725 19° North 438 504 35,000  Level Memphis Center
13:03 35.0797 -92.0292 17° North 432 497 35,000  Level Memphis Center
13:04 35.2075 -91.9783 18° North 432 497 35,000  Level Memphis Center
13:05 35.3208 -91.9322 18° North 440 506 35,000  Level Memphis Center
13:06 35.4425 -91.8861 17° North 440 506 35,000  Level Memphis Center
13:07 35.5575 -91.8397 18° North 427 491 35,000  Level Memphis Center
13:08 35.6667 -91.7983 17° North 432 497 35,000  Level Memphis Center
13:10 35.8761 -91.7125 18° North 433 498 35,000  Level Kansas City Center
13:11 35.9931 -91.6689 17° North 436 502 35,000  Level Kansas City Center
13:12 36.1217 -91.6150 19° North 437 503 35,000  Level Kansas City Center
13:13 36.2425 -91.5689 17° North 429 494 35,000  Level Memphis Center
13:14 36.3428 -91.5292 18° North 429 494 35,000  Level Memphis Center
13:15 36.4600 -91.4844 17° North 429 494 35,000  Level Memphis Center
13:16 36.5875 -91.4319 18° North 429 494 35,000  Level Memphis Center
13:19 36.8375 -91.3275 18° North 436 502 35,000  Level Kansas City Center
13:20 36.9519 -91.2831 17° North 431 496 35,000  Level Kansas City Center
13:21 37.0667 -91.2350 18° North 433 498 35,000  Level Kansas City Center
13:22 37.1844 -91.1836 19° North 440 506 35,000  Level Kansas City Center
13:23 37.2986 -91.1386 17° North 434 499 35,000  Level Kansas City Center
13:24 37.4378 -91.0811 18° North 435 501 35,000  Level Kansas City Center
13:25 37.5533 -91.0342 18° North 436 502 35,000  Level Kansas City Center
13:26 37.6728 -90.9836 19° North 437 503 35,000  Level Kansas City Center
13:27 37.7886 -90.9361 18° North 436 502 35,000  Level Kansas City Center
13:28 37.9036 -90.8889 18° North 436 502 35,000  Level Kansas City Center
13:29 38.0189 -90.8397 19° North 437 503 35,000  Level Kansas City Center
13:30 38.1342 -90.7911 18° North 436 502 35,000  Level Kansas City Center
13:31 38.2489 -90.7419 19° North 436 502 35,000  Level Kansas City Center
13:32 38.3861 -90.6850 18° North 432 497 35,000  Level Kansas City Center
13:33 38.4961 -90.6386 18° North 431 496 35,000  Level Kansas City Center
13:34 38.6056 -90.5919 18° North 420 483 35,000  Level Kansas City Center
13:35 38.7081 -90.5492 18° North 396 456 35,000  Level Kansas City Center
13:36 38.8114 -90.5056 18° North 390 449 35,000  Level Kansas City Center
13:37 38.9314 -90.4261 27° Northeast 411 473 35,000  Level Kansas City Center
13:38 39.0214 -90.3528 32° Northeast 422 486 35,000  Level Kansas City Center
13:39 39.1244 -90.2686 32° Northeast 433 498 35,000  Level Kansas City Center
13:40 39.2269 -90.1847 32° Northeast 436 502 35,000  Level Kansas City Center
13:41 39.3525 -90.0814 32° Northeast 442 509 35,000  Level Kansas City Center
13:42 39.4564 -89.9953 33° Northeast 444 511 35,000  Level Kansas City Center
13:43 39.5603 -89.9094 32° Northeast 443 510 35,000  Level Kansas City Center
13:45 39.6628 -89.8233 33° Northeast 440 506 35,000  Level Kansas City Center
13:46 39.7633 -89.7389 33° Northeast 442 509 35,000  Level Kansas City Center
13:47 39.8850 -89.6358 33° Northeast 438 504 35,000  Level Kansas City Center
13:47 39.9239 -89.5992 36° Northeast 439 505 35,000  Level Chicago Center
13:48 40.0219 -89.5044 36° Northeast 441 507 35,000  Level Chicago Center
13:49 40.1203 -89.4117 36° Northeast 439 505 35,000  Level Chicago Center
13:50 40.2386 -89.2983 36° Northeast 441 507 35,000  Level Chicago Center
13:51 40.3372 -89.2031 36° Northeast 442 509 35,000  Level Chicago Center
13:52 40.4361 -89.1081 36° Northeast 443 510 35,000 -180 Level Chicago Center
13:53 40.5353 -89.0125 36° Northeast 444 511 34,700 -660 Descending Chicago Center
13:54 40.6358 -88.9128 37° Northeast 453 521 33,700 -840 Descending Chicago Center
13:55 40.7461 -88.8061 36° Northeast 443 510 33,000 -360 Descending Chicago Center
13:56 40.8439 -88.7194 34° Northeast 428 493 33,000  Level Chicago Center
13:57 40.9508 -88.6606 23° Northeast 417 480 33,000  Level Chicago Center
13:58 41.0803 -88.5844 24° Northeast 423 487 33,000  Level Chicago Center
13:59 41.1903 -88.5217 23° Northeast 429 494 33,000 -180 Level Chicago Center
14:01 41.3006 -88.4586 23° Northeast 430 495 32,700 -1,380 Descending Chicago Center
14:02 41.4108 -88.3953 23° Northeast 430 495 30,200 -2,520 Descending Chicago Center
14:03 41.5217 -88.3308 24° Northeast 430 495 27,500 -2,340 Descending Chicago Center
14:04 41.6344 -88.3167 North 403 464 25,400 -1,920 Descending Chicago Center
14:05 41.7461 -88.3142 North 401 461 23,600 -1,980 Descending Chicago Center
14:06 41.8814 -88.3133 360° North 401 461 21,400 -1,980 Descending Chicago Center
14:07 41.9900 -88.3125 360° North 391 450 19,600 -1,680 Descending Chicago Center
14:08 42.0972 -88.3106 North 386 444 18,000 -1,260 Descending Chicago Center
14:09 42.2000 -88.3103 360° North 374 430 17,000 -900 Descending Chicago Center
14:10 42.3028 -88.3078 North 371 427 16,200 -1,740 Descending Chicago Center
14:11 42.4056 -88.3075 360° North 355 409 13,500 -2,400 Descending Chicago Center
14:12 42.5131 -88.3072 360° North 334 384 11,300 -1,560 Descending Chicago Center
14:13 42.6042 -88.3058 North 326 375 10,300 -660 Descending Chicago Center
14:14 42.6981 -88.3044 North 335 386 10,000 -180 Descending Chicago Center
14:15 42.7692 -88.2472 31° Northeast 321 369 10,000 -600 Level Chicago Center
14:16 42.7942 -88.1453 71° East 284 327 8,800 -1,440 Descending Chicago Center
14:17 42.8244 -88.0344 70° East 270 311 7,100 -900 Descending Chicago Center
14:18 42.8500 -87.9394 70° East 267 307 7,000 -300 Descending Chicago Center
14:19 42.8719 -87.8553 70° East 241 277 6,500 -1,380 Descending Chicago Center
14:20 42.8931 -87.7783 69° East 223 257 4,200 -1,560 Descending Chicago Center
14:21 42.9325 -87.7414 34° Northeast 210 242 3,300 -900 Descending Chicago Center